EW9058 Laiya PH current weather conditions

sailwx.info

Wind from 358

Air temperature 28.3° C
Dewpoint 25.6° C

Last reported at 2018-May-22 13:00 UTC.
Time now 2018-May-22 14:01 UTC

Location: N 13°40' E 121°24'.
View on Google Maps.

See reports from other nearby stations

  
Tides and Currents Weather Stations Pressure Air Temp Water Temp Dewpoint Dewpoint Depression Visibility Wind Speed Wind Dir Waves Ship Positions
date/time (UTC)wind fromknots sea level pressurealtimeterstation pressurevisibilityair tempwater tempwave heightnotes
2018-May-22 13:00 358 28.3
2018-May-22 12:30 026 1 gusting 6 28.3
2018-May-22 12:00 353 0 gusting 3 28.9
2018-May-22 11:30 017 28.9
2018-May-22 11:00 015 28.9
2018-May-22 10:30 030 29.4
2018-May-22 10:00 060 1 gusting 7 29.4
2018-May-22 09:30 059 1 gusting 7 30.0
2018-May-22 09:00 112 30.0
2018-May-22 08:30 144 0 gusting 6 30.0
2018-May-22 08:00 157 1 gusting 7 30.6
2018-May-22 07:30 161 2 gusting 8 31.7
2018-May-22 07:00 157 3 gusting 8 31.7
2018-May-22 06:30 155 3 gusting 7 31.7
2018-May-22 06:00 153 3 gusting 9 31.7
2018-May-22 05:30 161 4 gusting 9 31.7
2018-May-22 05:00 152 4 gusting 8 31.7
2018-May-22 04:30 156 4 gusting 9 31.1
2018-May-22 04:00 150 4 gusting 9 31.1
2018-May-22 03:30 152 4 gusting 12 31.1
2018-May-22 03:00 144 4 gusting 12 31.1
2018-May-22 02:30 156 3 gusting 6 30.6
2018-May-22 02:00 179 2 gusting 5 30.6
2018-May-22 01:30 183 1 gusting 6 31.1
2018-May-22 01:00 052 0 gusting 6 30.6
2018-May-22 00:30 048 0 gusting 4 29.4
2018-May-22 00:00 074 29.4
2018-May-21 23:30 090 29.4
2018-May-21 23:00 310 28.3
2018-May-21 22:30 319 27.8
2018-May-21 21:30
2018-May-21 21:00
2018-May-21 20:30 043 26.1
2018-May-21 20:00 055 26.1
2018-May-21 19:30 036 26.1
2018-May-21 19:00 060 26.1
2018-May-21 18:30 045 26.1
2018-May-21 18:00 003 26.1
2018-May-21 17:30 013 26.1
2018-May-21 17:00 036 26.1
2018-May-21 16:30 021 26.7
2018-May-21 16:00 353 26.7
2018-May-21 15:30 350 26.7
2018-May-21 15:00 27.2
2018-May-21 14:30 27.8
2018-May-21 14:00 312 27.8
2018-May-21 13:30 332 27.8
2018-May-21 13:00 353 1 gusting 5 27.8
2018-May-21 12:30 033 1 gusting 5 27.8
2018-May-21 12:00 049 1 gusting 7 27.8
2018-May-21 11:30 055 2 gusting 7 28.9
2018-May-21 11:00 127 0 gusting 5 30.0
2018-May-21 10:30 145 0 gusting 5 30.0
2018-May-21 10:00 150 1 gusting 6 31.1
2018-May-21 09:30 152 1 gusting 6 31.1
2018-May-21 09:00 151 2 gusting 6 31.7
2018-May-21 08:30 154 3 gusting 7 31.7
2018-May-21 08:00 150 3 gusting 7 31.7
2018-May-21 07:30 147 3 gusting 8 32.2
2018-May-21 07:00 147 4 gusting 8 32.2
2018-May-21 06:30 150 3 gusting 8 31.7
2018-May-21 06:00 163 2 gusting 6 31.1
2018-May-21 05:30 168 3 gusting 7 31.1
2018-May-21 05:00 162 4 gusting 7 31.1
2018-May-21 04:30 159 3 gusting 8 31.1
2018-May-21 04:00 156 3 gusting 8 31.1
2018-May-21 03:30 159 4 gusting 8 31.7
2018-May-21 03:00 158 3 gusting 7 31.7
2018-May-21 02:30 140 2 gusting 9 31.7
2018-May-21 02:00 074 3 gusting 10 31.1
2018-May-21 01:30 051 4 gusting 10 31.1
2018-May-21 01:00 049 3 gusting 10 30.6
2018-May-21 00:30 033 2 gusting 8 30.0
2018-May-21 00:00 030 3 gusting 8 29.4
2018-May-20 23:30 357 28.3
2018-May-20 23:00 320 0 gusting 4 27.2
2018-May-20 22:30 342 26.7
2018-May-20 22:00
2018-May-20 21:30
2018-May-20 21:00
2018-May-20 20:00 354 26.1
2018-May-20 19:30 26.1
2018-May-20 19:00 26.1
2018-May-20 18:30 351 26.1
2018-May-20 18:00 339 26.7
2018-May-20 17:30 324 26.7
2018-May-20 17:00 021 26.7
2018-May-20 16:30 344 27.2
2018-May-20 16:00 320 27.2
2018-May-20 15:30 334 27.2
2018-May-20 15:00 27.2
2018-May-20 14:30 27.2
2018-May-20 14:00 046 27.2